[[{"header":{"parameterUnit":"m.s-1","parameterCategory":1,"la1":30.2991,"la2":30.254,"lo1":-89.0895,"lo2":-89.0444,"dy":0.0017,"dx":0.0017,"nx":28,"ny":28,"refTime":"2024-05-28T09:00:00:Z","depth":0,"parameterNumber":2,"parameterNumberName":"U-component_of_WINDS"},"data":[0,0,0,0,0,0,0,0,0,0,0,0,0,0,0,0,0,0,0,0,0,0,0,0,0,0,0,0,0,0,0,0,0,0,0,0,0,0,0,0,0,0,0,0,0,0,0,0,0,0,0,0,0,0,0,0,0,0,-0.1501,-0.1501,0,-0.1466,-0.1465,-0.1465,-0.1429,-0.1428,-0.1428,-0.1427,-0.1393,-0.1392,-0.1392,0,0,0,0,0,0,0,0,0,0,0,0,0,-0.1536,-0.1536,-0.1501,-0.15,-0.15,-0.1466,-0.1465,-0.1465,-0.1429,-0.1428,-0.1428,-0.1427,-0.1393,-0.1392,-0.1392,0,0,0,0,0,0,0,0,0,0,0,0,0,-0.1513,-0.1536,-0.1501,-0.1478,-0.1476,-0.1466,-0.1465,-0.1465,-0.1429,-0.1428,-0.1428,-0.1427,-0.1393,-0.1392,-0.1392,-0.1402,0,0,-0.139,-0.1389,0,0,0,0,0,0,0,0,-0.1515,-0.1512,-0.1482,-0.148,-0.1477,-0.1451,-0.1465,-0.1444,-0.1429,-0.1447,-0.1427,-0.1427,-0.1413,-0.141,-0.1405,-0.1401,-0.1399,-0.1389,-0.1389,-0.1389,-0.1389,0,0,0,0,0,0,0,-0.1516,-0.1513,-0.1487,-0.1481,-0.1478,-0.1469,-0.1465,-0.1461,-0.1434,-0.1445,-0.1442,-0.1439,-0.1411,-0.1406,-0.1404,-0.1399,-0.1389,-0.1389,-0.1388,-0.1388,-0.14,-0.14,0,0,0,0,0,0,-0.1521,-0.1515,-0.1488,-0.1486,-0.1494,-0.1469,-0.1465,-0.146,-0.1434,-0.143,-0.1439,-0.1437,-0.1408,-0.1405,-0.1403,-0.1413,-0.1389,-0.1388,-0.1388,-0.1399,-0.14,-0.1401,0,0,0,0,0,0,-0.1522,-0.1519,-0.149,-0.15,-0.1495,-0.1469,-0.1465,-0.146,-0.1455,-0.143,-0.1425,-0.1439,-0.1407,-0.1404,-0.1402,-0.1412,-0.1388,-0.1387,-0.1398,-0.1399,-0.14,-0.1435,0,0,0,0,0,0,-0.1523,-0.152,-0.1524,-0.15,-0.1495,-0.149,-0.1465,-0.146,-0.1453,-0.145,-0.1429,-0.1424,-0.1406,-0.1404,-0.1402,-0.141,-0.1387,-0.1397,-0.1399,-0.14,-0.1433,-0.1437,-0.144,0,0,0,0,0,-0.1525,-0.1535,-0.1524,-0.1521,-0.1499,-0.149,-0.1487,-0.1466,-0.1454,-0.1458,-0.1442,-0.1425,-0.1411,-0.1404,-0.1401,-0.141,-0.1397,-0.1398,-0.14,-0.1431,-0.1436,-0.144,0,0,0,0,0,0,-0.1562,-0.1532,-0.1519,-0.1522,-0.1509,-0.1484,-0.1489,-0.1473,-0.1463,-0.146,-0.1434,-0.143,-0.1431,-0.142,-0.1413,-0.1418,-0.1401,-0.1402,-0.1426,-0.143,-0.1434,-0.1437,-0.1386,0,0,0,0,0,-0.157,-0.1566,-0.154,-0.1545,-0.1539,-0.1515,-0.151,-0.1495,-0.148,-0.1475,-0.1458,-0.1445,-0.1437,-0.1433,-0.1425,-0.143,-0.1425,-0.1435,-0.1439,-0.1442,-0.1444,-0.1445,-0.1449,-0.1406,-0.1406,-0.1406,0,0,-0.1588,-0.1571,-0.157,-0.1552,-0.154,-0.1535,-0.151,-0.1507,-0.1503,-0.1474,-0.1472,-0.1459,-0.1442,-0.1444,-0.1444,-0.1435,-0.1454,-0.1444,-0.1447,-0.1447,-0.1447,-0.1451,-0.1455,-0.1407,-0.1407,-0.1407,0,0,-0.1618,-0.1605,-0.1607,-0.1595,-0.1577,-0.156,-0.1561,-0.1538,-0.1529,-0.1525,-0.1503,-0.1498,-0.1486,-0.1474,-0.1467,-0.1491,-0.1474,-0.1488,-0.1509,-0.1511,-0.1514,-0.1517,-0.1525,-0.1528,-0.149,-0.149,-0.149,0,-0.1642,-0.1635,-0.1611,-0.1608,-0.1601,-0.1573,-0.1575,-0.1565,-0.1545,-0.154,-0.153,-0.1513,-0.15,-0.1498,-0.1504,-0.1499,-0.1498,-0.1491,-0.1515,-0.1518,-0.152,-0.1528,-0.1531,-0.1492,-0.1492,-0.1491,-0.1491,0,-0.1666,-0.166,-0.1665,-0.1645,-0.1638,-0.1638,-0.1614,-0.161,-0.1594,-0.1579,-0.1575,-0.1558,-0.1545,-0.1544,-0.1529,-0.154,-0.1534,-0.152,-0.1503,-0.1527,-0.1533,-0.1536,-0.1495,-0.1494,-0.1493,-0.1493,0,0,-0.172,-0.1686,-0.1688,-0.1678,-0.1655,-0.165,-0.1648,-0.1635,-0.1632,-0.1619,-0.1616,-0.1605,-0.1592,-0.1583,-0.1567,-0.1568,-0.1587,-0.1553,-0.1553,-0.156,-0.1597,-0.1609,-0.1612,-0.1576,-0.1576,-0.1577,-0.1599,0,-0.1746,-0.1741,-0.1718,-0.172,-0.1715,-0.1687,-0.1685,-0.1671,-0.1656,-0.1649,-0.1632,-0.1625,-0.1608,-0.1602,-0.1602,-0.1585,-0.1595,-0.1583,-0.1574,-0.1574,-0.1579,-0.1616,-0.1628,-0.165,-0.1601,-0.1602,-0.1602,0,-0.1776,-0.1764,-0.1765,-0.174,-0.1737,-0.1736,-0.1722,-0.1715,-0.1698,-0.1687,-0.1677,-0.1658,-0.1654,-0.1637,-0.1631,-0.1624,-0.1618,-0.1609,-0.1609,-0.1608,-0.159,-0.1616,-0.1656,-0.166,-0.1606,-0.1606,-0.1605,0,-0.1815,-0.1799,-0.1797,-0.179,-0.1761,-0.1761,-0.1749,-0.1731,-0.1724,-0.1711,-0.1706,-0.1693,-0.1687,-0.1677,-0.1655,-0.1644,-0.1651,-0.1632,-0.1642,-0.1642,-0.1645,-0.1646,-0.1685,-0.1641,-0.1641,-0.1641,-0.1641,0,-0.1847,-0.1849,-0.1814,-0.1813,-0.1814,-0.1788,-0.1789,-0.1775,-0.1758,-0.1754,-0.1729,-0.1725,-0.1696,-0.1689,-0.1671,-0.1669,-0.1666,-0.1657,-0.1652,-0.1659,-0.166,-0.1656,-0.1654,-0.1642,-0.1642,-0.1641,-0.1641,0,-0.1892,-0.1869,-0.1865,-0.1838,-0.1831,-0.1833,-0.1809,-0.1807,-0.179,-0.1784,-0.1781,-0.1755,-0.1745,-0.1721,-0.1705,-0.1694,-0.1695,-0.1687,-0.1701,-0.1699,-0.1709,-0.1709,-0.1748,-0.1752,-0.1705,-0.1706,-0.1706,0,-0.1914,-0.1915,-0.1887,-0.1882,-0.1871,-0.1863,-0.1856,-0.1829,-0.1822,-0.1801,-0.1802,-0.1789,-0.1778,-0.1764,-0.1743,-0.173,-0.1721,-0.1736,-0.1719,-0.1726,-0.1721,-0.1722,-0.1722,-0.174,-0.1741,-0.1741,-0.1742,0,-0.1956,-0.1944,-0.1934,-0.192,-0.1911,-0.1899,-0.1885,-0.1882,-0.1852,-0.1846,-0.1835,-0.1826,-0.1809,-0.1797,-0.1781,-0.1768,-0.175,-0.1747,-0.1748,-0.1756,-0.1764,-0.176,-0.1712,-0.1746,-0.1746,-0.1745,-0.1745,-0.1745,-0.199,-0.1989,-0.1969,-0.1958,-0.1945,-0.1932,-0.1928,-0.191,-0.19,-0.1884,-0.1869,-0.1859,-0.184,-0.1817,-0.1805,-0.1797,-0.1788,-0.179,-0.1791,-0.1792,-0.1795,-0.1765,-0.1794,-0.1794,-0.1794,-0.1794,-0.1793,0,-0.2031,-0.2016,-0.2006,-0.1987,-0.1979,-0.1961,-0.1944,-0.1938,-0.193,-0.1914,-0.1903,-0.189,-0.1878,-0.1855,-0.1841,-0.1839,-0.183,-0.1836,-0.1837,-0.1834,-0.1804,-0.1804,-0.1844,-0.1844,-0.1844,-0.1844,-0.1844,-0.1844,-0.2051,-0.2048,-0.2033,-0.2023,-0.2008,-0.1998,-0.199,-0.1978,-0.1964,-0.1951,-0.194,-0.1925,-0.1906,-0.189,-0.1878,-0.1872,-0.1868,-0.1877,-0.1868,-0.1841,-0.1836,-0.1832,-0.1831,-0.1876,-0.1876,-0.1898,-0.1898,-0.1898]},{"header":{"parameterUnit":"m.s-1","parameterCategory":1,"la1":30.2991,"la2":30.254,"lo1":-89.0895,"lo2":-89.0444,"dy":0.0017,"dx":0.0017,"nx":28,"ny":28,"refTime":"2024-05-28T09:00:00:Z","depth":0,"parameterNumber":3,"parameterNumberName":"V-component_of_WINDS"},"data":[0,0,0,0,0,0,0,0,0,0,0,0,0,0,0,0,0,0,0,0,0,0,0,0,0,0,0,0,0,0,0,0,0,0,0,0,0,0,0,0,0,0,0,0,0,0,0,0,0,0,0,0,0,0,0,0,0,0,-2.9316,-2.9316,0,-2.9351,-2.9351,-2.9351,-2.9322,-2.9321,-2.932,-2.9319,-2.9351,-2.9353,-2.9355,0,0,0,0,0,0,0,0,0,0,0,0,0,-2.922,-2.9222,-2.9315,-2.9316,-2.9316,-2.9351,-2.9351,-2.9352,-2.9323,-2.9321,-2.932,-2.9318,-2.935,-2.9353,-2.9355,0,0,0,0,0,0,0,0,0,0,0,0,0,-2.9259,-2.9223,-2.9315,-2.9306,-2.9306,-2.9351,-2.9351,-2.9352,-2.9323,-2.9321,-2.9319,-2.9318,-2.935,-2.9352,-2.9355,-2.941,0,0,-2.9364,-2.9366,0,0,0,0,0,0,0,0,-2.9257,-2.9263,-2.9307,-2.9307,-2.9307,-2.933,-2.9329,-2.9371,-2.9323,-2.9316,-2.9319,-2.9317,-2.9345,-2.9348,-2.9359,-2.9411,-2.9413,-2.9365,-2.9366,-2.9368,-2.9369,0,0,0,0,0,0,0,-2.9254,-2.9261,-2.9329,-2.9308,-2.9307,-2.9299,-2.9303,-2.9337,-2.934,-2.9317,-2.9315,-2.932,-2.9345,-2.9356,-2.9359,-2.9413,-2.9365,-2.9367,-2.9369,-2.937,-2.9513,-2.9515,0,0,0,0,0,0,-2.9253,-2.9259,-2.9328,-2.933,-2.9277,-2.9303,-2.9306,-2.9324,-2.934,-2.9341,-2.9321,-2.9318,-2.9352,-2.9356,-2.936,-2.9426,-2.9368,-2.937,-2.9372,-2.9511,-2.9513,-2.9515,0,0,0,0,0,0,-2.9251,-2.9259,-2.9327,-2.9294,-2.9302,-2.9306,-2.9327,-2.9326,-2.9338,-2.9343,-2.9343,-2.9332,-2.9351,-2.9356,-2.9398,-2.9426,-2.9372,-2.9374,-2.9508,-2.9512,-2.9514,-2.9557,0,0,0,0,0,0,-2.9248,-2.9259,-2.928,-2.9295,-2.9304,-2.9365,-2.9328,-2.9328,-2.9343,-2.934,-2.9354,-2.9354,-2.935,-2.9394,-2.9401,-2.943,-2.9377,-2.9506,-2.951,-2.9513,-2.9553,-2.9561,-2.9567,0,0,0,0,0,-2.9245,-2.929,-2.9281,-2.929,-2.9331,-2.9367,-2.9372,-2.9366,-2.9346,-2.9367,-2.9371,-2.9354,-2.9423,-2.9399,-2.9406,-2.9436,-2.9504,-2.9509,-2.9513,-2.9549,-2.9559,-2.9567,0,0,0,0,0,0,-2.9276,-2.9291,-2.9282,-2.9333,-2.9349,-2.9362,-2.9388,-2.9377,-2.9398,-2.9393,-2.9385,-2.9388,-2.9433,-2.9438,-2.9412,-2.949,-2.946,-2.9466,-2.9485,-2.9494,-2.9501,-2.9498,-2.9379,0,0,0,0,0,-2.9289,-2.9318,-2.9329,-2.9373,-2.9381,-2.9384,-2.9399,-2.9394,-2.9409,-2.9415,-2.9422,-2.9437,-2.9462,-2.9478,-2.9501,-2.9554,-2.9556,-2.9578,-2.9585,-2.9592,-2.9597,-2.9625,-2.9635,-2.953,-2.953,-2.953,0,0,-2.9315,-2.9327,-2.9346,-2.9379,-2.9391,-2.942,-2.9389,-2.9421,-2.9443,-2.942,-2.946,-2.9466,-2.9482,-2.953,-2.9551,-2.9536,-2.9627,-2.9597,-2.9602,-2.9604,-2.9631,-2.9641,-2.965,-2.9533,-2.9533,-2.9532,0,0,-2.9379,-2.9391,-2.9429,-2.9442,-2.9461,-2.9463,-2.9472,-2.9487,-2.949,-2.9531,-2.9515,-2.954,-2.9583,-2.9595,-2.9607,-2.9678,-2.9663,-2.9685,-2.9724,-2.9752,-2.976,-2.9767,-2.9793,-2.9802,-2.9691,-2.9691,-2.9691,0,-2.9409,-2.9454,-2.945,-2.9484,-2.9499,-2.9482,-2.952,-2.9532,-2.9557,-2.9568,-2.9551,-2.9606,-2.9615,-2.9666,-2.9683,-2.9693,-2.9703,-2.9683,-2.9759,-2.9767,-2.9773,-2.9797,-2.9807,-2.9693,-2.9693,-2.9693,-2.9693,0,-2.949,-2.9521,-2.9549,-2.9576,-2.9595,-2.963,-2.9631,-2.965,-2.9644,-2.9647,-2.969,-2.9701,-2.9726,-2.9738,-2.9731,-2.9788,-2.9778,-2.9761,-2.973,-2.9786,-2.9808,-2.9818,-2.9697,-2.9696,-2.9695,-2.9695,0,0,-2.9571,-2.9598,-2.9608,-2.9621,-2.9641,-2.9665,-2.97,-2.9727,-2.9743,-2.9762,-2.9791,-2.9829,-2.9813,-2.9827,-2.9821,-2.9846,-2.9902,-2.9826,-2.9826,-2.9839,-2.9965,-2.9978,-2.9989,-2.9893,-2.9895,-2.9896,-2.9964,0,-2.9636,-2.9699,-2.9697,-2.9755,-2.9784,-2.9769,-2.98,-2.9816,-2.982,-2.9845,-2.9849,-2.9876,-2.9853,-2.9861,-2.9885,-2.989,-2.9927,-2.9885,-2.9919,-2.992,-2.9915,-3.0,-3.0014,-3.0077,-2.9972,-2.9974,-2.9975,0,-2.9719,-2.9742,-2.9804,-2.9822,-2.9834,-2.9862,-2.9887,-2.9911,-2.9928,-2.9929,-2.9946,-2.9937,-2.9973,-2.9942,-2.999,-2.9962,-2.9976,-2.998,-2.9983,-2.9985,-2.995,-3.0005,-3.0097,-3.0106,-2.9989,-2.9988,-2.9987,0,-2.9772,-2.9819,-2.9862,-2.9873,-2.9895,-2.9915,-2.9925,-2.9941,-2.9958,-2.9979,-2.999,-3.0015,-3.0029,-3.0048,-3.0046,-3.0024,-3.0095,-3.0064,-3.0097,-3.0097,-3.0111,-3.011,-3.0207,-3.0121,-3.0121,-3.0121,-3.0121,0,-2.9844,-2.9882,-2.9887,-2.9913,-2.9956,-2.9954,-2.9995,-3.0003,-3.0018,-3.0045,-3.0033,-3.0059,-3.0055,-3.0081,-3.008,-3.012,-3.0126,-3.0128,-3.0127,-3.0129,-3.0128,-3.0137,-3.0132,-3.0124,-3.0123,-3.0123,-3.0122,0,-2.991,-2.9915,-2.9961,-2.9979,-2.9985,-3.0015,-3.003,-3.0055,-3.0059,-3.0094,-3.0102,-3.0108,-3.0137,-3.0138,-3.0171,-3.0171,-3.022,-3.0214,-3.0215,-3.0213,-3.0246,-3.0243,-3.0351,-3.0365,-3.027,-3.0271,-3.0272,0,-2.9955,-2.9985,-3.0007,-3.0025,-3.0037,-3.0066,-3.0084,-3.0083,-3.0102,-3.0125,-3.0147,-3.0176,-3.0199,-3.0247,-3.0254,-3.0279,-3.0274,-3.031,-3.0278,-3.0279,-3.0274,-3.0273,-3.0275,-3.0316,-3.0317,-3.0318,-3.0319,0,-3.0034,-3.0036,-3.0063,-3.0091,-3.0113,-3.0135,-3.0155,-3.0171,-3.0172,-3.0194,-3.0225,-3.0243,-3.0279,-3.0307,-3.0333,-3.0341,-3.0331,-3.033,-3.0338,-3.034,-3.0339,-3.034,-3.0231,-3.0327,-3.0326,-3.0325,-3.0325,-3.0325,-3.0091,-3.0117,-3.0138,-3.0168,-3.0184,-3.0204,-3.0228,-3.0237,-3.0263,-3.0293,-3.0291,-3.0326,-3.0343,-3.0377,-3.0388,-3.0414,-3.0402,-3.0414,-3.0418,-3.0421,-3.0424,-3.0336,-3.0419,-3.0419,-3.0419,-3.0418,-3.0418,0,-3.017,-3.0183,-3.0211,-3.0241,-3.0265,-3.0255,-3.0278,-3.0298,-3.0329,-3.0348,-3.0371,-3.0408,-3.0436,-3.0446,-3.0473,-3.0493,-3.0488,-3.05,-3.0498,-3.05,-3.0434,-3.0424,-3.0503,-3.0503,-3.0503,-3.0503,-3.0503,-3.0503,-3.0214,-3.0257,-3.0262,-3.0313,-3.0326,-3.0361,-3.0375,-3.0393,-3.0407,-3.0449,-3.0473,-3.0481,-3.0495,-3.0524,-3.055,-3.0552,-3.0562,-3.0576,-3.0576,-3.0513,-3.0505,-3.0497,-3.0487,-3.0578,-3.0578,-3.064,-3.0641,-3.0641]}]]